EN

Hourly Weather Altamonte Springs

Today, 21 January, Thursday

Time Temperature Precipitation Wind Pressure Humidity
00:00 +15°C° 0 mm 2 mps 764 mmHg 50%
01:00 +14°C° 0 mm 2 mps 764 mmHg 52%
02:00 +14°C° 0 mm 2 mps 763 mmHg 56%
03:00 +14°C° 0 mm 1 mps 763 mmHg 59%
04:00 +13°C° 0 mm 1 mps 763 mmHg 62%
05:00 +13°C° 0 mm 1 mps 763 mmHg 65%
06:00 +13°C° 0 mm 1 mps 763 mmHg 68%
07:00 +13°C° 0 mm 1 mps 763 mmHg 70%
08:00 +15°C° 0 mm 1 mps 763 mmHg 65%
09:00 +16°C° 0 mm 1 mps 763 mmHg 60%
10:00 +19°C° 0 mm 1 mps 763 mmHg 56%
11:00 +20°C° 0 mm 2 mps 763 mmHg 52%
12:00 +22°C° 0 mm 3 mps 762 mmHg 48%
13:00 +25°C° 0 mm 3 mps 762 mmHg 44%
14:00 +25°C° 0 mm 4 mps 761 mmHg 43%
15:00 +25°C° 0 mm 4 mps 760 mmHg 43%
16:00 +25°C° 0 mm 4 mps 760 mmHg 42%
17:00 +23°C° 0 mm 4 mps 760 mmHg 47%
18:00 +21°C° 0 mm 3 mps 760 mmHg 52%
19:00 +19°C° 0 mm 3 mps 761 mmHg 58%
20:00 +19°C° 0 mm 3 mps 760 mmHg 59%
21:00 +18°C° 0 mm 3 mps 760 mmHg 60%
22:00 +17°C° 0 mm 2 mps 760 mmHg 62%
23:00 +17°C° 0 mm 2 mps 760 mmHg 61%

Tomorrow, 22 January, Friday

Time Temperature Precipitation Wind Pressure Humidity
00:00 +16°C° 0 mm 2 mps 760 mmHg 60%
01:00 +16°C° 0 mm 2 mps 760 mmHg 60%
02:00 +16°C° 0 mm 2 mps 759 mmHg 65%
03:00 +15°C° 0 mm 2 mps 759 mmHg 71%
04:00 +15°C° 0 mm 2 mps 758 mmHg 76%
05:00 +15°C° 0 mm 2 mps 759 mmHg 80%
06:00 +14°C° 0 mm 3 mps 759 mmHg 83%
07:00 +14°C° 0 mm 3 mps 759 mmHg 86%
08:00 +16°C° 0 mm 3 mps 759 mmHg 78%
09:00 +18°C° 0 mm 3 mps 760 mmHg 70%
10:00 +20°C° 0 mm 4 mps 760 mmHg 62%
11:00 +21°C° 0 mm 4 mps 760 mmHg 57%
12:00 +23°C° 0 mm 4 mps 760 mmHg 52%
13:00 +25°C° 0 mm 4 mps 759 mmHg 47%
14:00 +25°C° 0 mm 4 mps 759 mmHg 51%
15:00 +23°C° 0 mm 4 mps 759 mmHg 55%
16:00 +24°C° 0 mm 3 mps 758 mmHg 59%
17:00 +22°C° 0 mm 3 mps 759 mmHg 65%
18:00 +21°C° 0 mm 2 mps 759 mmHg 70%
19:00 +21°C° 0 mm 1 mps 759 mmHg 76%
20:00 +19°C° 0 mm 2 mps 759 mmHg 77%
21:00 +19°C° 0 mm 2 mps 759 mmHg 79%
22:00 +19°C° 0 mm 2 mps 759 mmHg 80%
23:00 +19°C° 0 mm 2 mps 759 mmHg 81%

Day after tomorrow, 23 January, Saturday

Time Temperature Precipitation Wind Pressure Humidity
00:00 +18°C° 0 mm 2 mps 759 mmHg 82%
01:00 +18°C° 0 mm 2 mps 759 mmHg 83%
02:00 +18°C° 0 mm 2 mps 759 mmHg 84%
03:00 +18°C° 0 mm 2 mps 759 mmHg 86%
04:00 +18°C° 0 mm 2 mps 759 mmHg 87%
05:00 +18°C° 0 mm 2 mps 760 mmHg 89%
06:00 +18°C° 0 mm 2 mps 760 mmHg 92%
07:00 +18°C° 0 mm 1 mps 760 mmHg 94%
08:00 +19°C° 0 mm 1 mps 761 mmHg 91%
09:00 +20°C° 0 mm 1 mps 761 mmHg 87%
10:00 +21°C° 0 mm 1 mps 762 mmHg 83%
11:00 +20°C° 0.1 mm 2 mps 762 mmHg 84%
12:00 +20°C° 0.1 mm 2 mps 762 mmHg 85%
13:00 +19°C° 0.1 mm 3 mps 762 mmHg 86%
14:00 +19°C° 0 mm 3 mps 761 mmHg 84%
15:00 +19°C° 0 mm 3 mps 761 mmHg 83%
16:00 +19°C° 0 mm 3 mps 761 mmHg 81%
17:00 +18°C° 0 mm 3 mps 761 mmHg 81%
18:00 +18°C° 0 mm 3 mps 762 mmHg 80%
19:00 +18°C° 0 mm 3 mps 762 mmHg 79%
20:00 +18°C° 0 mm 3 mps 762 mmHg 81%
21:00 +17°C° 0 mm 2 mps 763 mmHg 82%
22:00 +17°C° 0 mm 2 mps 763 mmHg 84%
23:00 +17°C° 0 mm 2 mps 763 mmHg 86%

24 January, Sunday

Time Temperature Precipitation Wind Pressure Humidity
00:00 +17°C° 0 mm 2 mps 763 mmHg 89%
01:00 +18°C° 0 mm 1 mps 762 mmHg 92%
02:00 +18°C° 0 mm 1 mps 762 mmHg 92%
03:00 +19°C° 0 mm 1 mps 762 mmHg 93%
04:00 +19°C° 0 mm 1 mps 762 mmHg 94%
05:00 +19°C° 0.1 mm 1 mps 762 mmHg 94%
06:00 +19°C° 0.1 mm 1 mps 762 mmHg 95%
07:00 +19°C° 0.1 mm 1 mps 762 mmHg 96%
08:00 +19°C° 0.1 mm 2 mps 762 mmHg 90%
09:00 +21°C° 0.1 mm 2 mps 763 mmHg 83%
10:00 +23°C° 0.1 mm 2 mps 763 mmHg 77%
11:00 +24°C° 0.2 mm 2 mps 763 mmHg 70%
12:00 +26°C° 0.2 mm 1 mps 762 mmHg 63%
13:00 +27°C° 0.2 mm 1 mps 762 mmHg 56%
14:00 +27°C° 0.1 mm 1 mps 762 mmHg 57%
15:00 +27°C° 0.1 mm 2 mps 761 mmHg 58%
16:00 +26°C° 0.1 mm 2 mps 761 mmHg 59%
17:00 +25°C° 0.1 mm 2 mps 761 mmHg 67%
18:00 +24°C° 0.1 mm 3 mps 761 mmHg 75%
19:00 +21°C° 0.1 mm 3 mps 761 mmHg 83%
20:00 +21°C° 0 mm 3 mps 761 mmHg 86%
21:00 +21°C° 0 mm 3 mps 761 mmHg 88%
22:00 +20°C° 0 mm 3 mps 761 mmHg 91%
23:00 +20°C° 0 mm 3 mps 761 mmHg 92%

25 January, Monday

Time Temperature Precipitation Wind Pressure Humidity
00:00 +20°C° 0 mm 2 mps 760 mmHg 93%
01:00 +20°C° 0 mm 2 mps 760 mmHg 94%
02:00 +19°C° 0 mm 2 mps 760 mmHg 94%
03:00 +19°C° 0 mm 2 mps 760 mmHg 94%
04:00 +19°C° 0 mm 2 mps 759 mmHg 94%
05:00 +19°C° 0 mm 2 mps 759 mmHg 94%
06:00 +19°C° 0 mm 2 mps 759 mmHg 94%
07:00 +18°C° 0 mm 2 mps 759 mmHg 94%
08:00 +20°C° 0 mm 3 mps 759 mmHg 86%
09:00 +21°C° 0 mm 3 mps 760 mmHg 79%
10:00 +23°C° 0 mm 4 mps 760 mmHg 71%
11:00 +25°C° 0 mm 4 mps 759 mmHg 65%
12:00 +27°C° 0 mm 5 mps 759 mmHg 59%
13:00 +28°C° 0 mm 5 mps 758 mmHg 53%
14:00 +29°C° 0 mm 5 mps 758 mmHg 51%
15:00 +29°C° 0 mm 5 mps 758 mmHg 48%
16:00 +29°C° 0 mm 5 mps 757 mmHg 46%
17:00 +28°C° 0 mm 5 mps 758 mmHg 51%
18:00 +26°C° 0 mm 4 mps 758 mmHg 56%
19:00 +23°C° 0 mm 4 mps 758 mmHg 61%
20:00 +22°C° 0 mm 4 mps 758 mmHg 68%
21:00 +22°C° 0 mm 3 mps 759 mmHg 75%
22:00 +21°C° 0 mm 3 mps 759 mmHg 81%
23:00 +21°C° 0 mm 3 mps 759 mmHg 81%

26 January, Tuesday

Time Temperature Precipitation Wind Pressure Humidity
00:00 +21°C° 0 mm 3 mps 758 mmHg 81%
01:00 +21°C° 0 mm 2 mps 758 mmHg 81%
02:00 +20°C° 0 mm 2 mps 758 mmHg 84%
03:00 +20°C° 0 mm 2 mps 758 mmHg 86%
04:00 +20°C° 0 mm 2 mps 758 mmHg 88%
05:00 +19°C° 0 mm 2 mps 759 mmHg 90%
06:00 +19°C° 0 mm 3 mps 759 mmHg 91%
07:00 +19°C° 0 mm 3 mps 759 mmHg 93%
08:00 +20°C° 0 mm 3 mps 759 mmHg 86%
09:00 +22°C° 0 mm 3 mps 760 mmHg 79%
10:00 +23°C° 0 mm 4 mps 760 mmHg 72%
11:00 +26°C° 0 mm 4 mps 760 mmHg 67%
12:00 +27°C° 0 mm 3 mps 760 mmHg 61%
13:00 +29°C° 0 mm 3 mps 759 mmHg 56%
14:00 +29°C° 0 mm 3 mps 759 mmHg 56%
15:00 +29°C° 0 mm 3 mps 759 mmHg 57%
16:00 +28°C° 0 mm 3 mps 758 mmHg 57%
17:00 +27°C° 0 mm 3 mps 759 mmHg 61%
18:00 +26°C° 0 mm 2 mps 759 mmHg 65%
19:00 +25°C° 0 mm 2 mps 760 mmHg 70%
20:00 +24°C° 0 mm 2 mps 760 mmHg 72%
21:00 +24°C° 0 mm 1 mps 760 mmHg 74%
22:00 +23°C° 0 mm 1 mps 761 mmHg 77%
23:00 +23°C° 0 mm 1 mps 761 mmHg 79%
Show more